OneWeb SL0164

operational
NORAD ID: 48063 Int'l Des: 2021-025 Owner: ONEWEBN Country: UK Constellation: oneweb
LEOCIRCULARPOLARONEWEB_TYPE

关于 OneWeb SL0164

正在加载描述...

实时位置

正在加载3D地球...

即将过境

高度历史

Altitude vs Time

uPlot chart will show altitude changes over time

两行轨道根数

1 48063U 21025X 26062.20929332 .00000216 00000-0 55669-3 0 9990
2 48063 87.9050 341.2901 0001681 80.2100 279.9219 13.13469618239677
Epoch: Mar 3, 2026 • Age: 36 hours

当前状态

高度 1236.8 km
速度 7.24 km/s
星下点 -69.19°S, 2.99°W
发射日期 Mar 25, 2021
运行时间 4.9 years
类型 internet

技术详情

分类 Payload
质量 148.00 kg
干质量 140.00 kg
总质量 148.00 kg
长度 1.30 m
直径 1.00 m
跨度 5.00 m
形状 Trapezoid+2 pan
制造商 ONEWUS
平台类型 ARROW
阶段状态 In Orbit
所有者/国家 ONEWEBN/UK

大型星座

Loading constellations...